• In Russia
  • List of Countries
  • For 7 days
  • Water Temperature
  • Satellite Maps
  • Weather Map
  • Weather Widgets
  • user-avatar
    Login

    Hourly Weather Mayrhofen

    Today, 28 July, Friday

    Time Temperature Precipitation Wind Pressure Humidity
    00:00 +9°C° 0.5 mm 1 mps 616 mmHg 91%
    01:00 +10°C° 0 mm 1 mps 616 mmHg 90%
    02:00 +10°C° 0.8 mm 1 mps 616 mmHg 91%
    03:00 +10°C° 0.8 mm 1 mps 616 mmHg 92%
    04:00 +10°C° 0.8 mm 1 mps 616 mmHg 92%
    05:00 +10°C° 0.2 mm 1 mps 617 mmHg 90%
    06:00 +11°C° 0.2 mm 1 mps 617 mmHg 89%
    07:00 +12°C° 0.2 mm 1 mps 618 mmHg 87%
    08:00 +13°C° 0.2 mm 1 mps 619 mmHg 82%
    09:00 +15°C° 0.2 mm 1 mps 619 mmHg 78%
    10:00 +16°C° 0.2 mm 1 mps 620 mmHg 73%
    11:00 +18°C° 0.3 mm 1 mps 620 mmHg 71%
    12:00 +18°C° 0.3 mm 1 mps 620 mmHg 68%
    13:00 +18°C° 0.3 mm 2 mps 620 mmHg 66%
    14:00 +17°C° 0.5 mm 2 mps 620 mmHg 70%
    15:00 +17°C° 0.5 mm 2 mps 620 mmHg 73%
    16:00 +17°C° 0.5 mm 2 mps 620 mmHg 76%
    17:00 +16°C° 0.3 mm 2 mps 620 mmHg 81%
    18:00 +15°C° 0.3 mm 2 mps 620 mmHg 86%
    19:00 +14°C° 0.3 mm 1 mps 620 mmHg 90%
    20:00 +13°C° 0.1 mm 1 mps 620 mmHg 92%
    21:00 +12°C° 0.1 mm 1 mps 620 mmHg 95%
    22:00 +11°C° 0.1 mm 1 mps 620 mmHg 97%
    23:00 +11°C° 0 mm 1 mps 620 mmHg 97%

    Tomorrow, 29 July, Saturday

    Time Temperature Precipitation Wind Pressure Humidity
    00:00 +10°C° 0 mm 1 mps 620 mmHg 97%
    01:00 +9°C° 0 mm 1 mps 619 mmHg 96%
    02:00 +9°C° 0 mm 1 mps 619 mmHg 96%
    03:00 +9°C° 0 mm 1 mps 619 mmHg 96%
    04:00 +9°C° 0 mm 1 mps 619 mmHg 95%
    05:00 +10°C° 0 mm 1 mps 620 mmHg 92%
    06:00 +12°C° 0 mm 1 mps 621 mmHg 89%
    07:00 +14°C° 0 mm 1 mps 622 mmHg 86%
    08:00 +16°C° 0 mm 1 mps 622 mmHg 78%
    09:00 +18°C° 0 mm 1 mps 623 mmHg 71%
    10:00 +20°C° 0 mm 1 mps 624 mmHg 63%
    11:00 +20°C° 0.3 mm 1 mps 624 mmHg 62%
    12:00 +21°C° 0.3 mm 1 mps 624 mmHg 62%
    13:00 +20°C° 0.3 mm 2 mps 624 mmHg 61%
    14:00 +21°C° 0.8 mm 1 mps 624 mmHg 62%
    15:00 +21°C° 0.8 mm 1 mps 623 mmHg 63%
    16:00 +21°C° 0.8 mm 1 mps 623 mmHg 65%
    17:00 +19°C° 1 mm 1 mps 623 mmHg 73%
    18:00 +18°C° 1 mm 1 mps 622 mmHg 81%
    19:00 +15°C° 1 mm 1 mps 622 mmHg 88%
    20:00 +15°C° 1 mm 1 mps 622 mmHg 90%
    21:00 +14°C° 1 mm 1 mps 622 mmHg 92%
    22:00 +13°C° 1 mm 1 mps 622 mmHg 94%
    23:00 +13°C° 0.6 mm 1 mps 621 mmHg 93%

    Day after tomorrow, 30 July, Sunday

    Time Temperature Precipitation Wind Pressure Humidity
    00:00 +12°C° 0.6 mm 2 mps 621 mmHg 93%
    01:00 +12°C° 0.6 mm 2 mps 621 mmHg 93%
    02:00 +12°C° 0.2 mm 2 mps 620 mmHg 93%
    03:00 +12°C° 0.2 mm 2 mps 620 mmHg 93%
    04:00 +10°C° 0.2 mm 2 mps 620 mmHg 93%
    05:00 +12°C° 0.1 mm 2 mps 620 mmHg 91%
    06:00 +13°C° 0.1 mm 2 mps 621 mmHg 88%
    07:00 +14°C° 0.1 mm 2 mps 621 mmHg 86%
    08:00 +18°C° 0.1 mm 1 mps 622 mmHg 75%
    09:00 +20°C° 0.1 mm 1 mps 622 mmHg 64%
    10:00 +22°C° 0.1 mm 1 mps 623 mmHg 52%
    11:00 +23°C° 0.4 mm 1 mps 623 mmHg 51%
    12:00 +23°C° 0.4 mm 1 mps 623 mmHg 50%
    13:00 +23°C° 0.4 mm 1 mps 623 mmHg 48%
    14:00 +23°C° 1.1 mm 1 mps 623 mmHg 53%
    15:00 +22°C° 1.1 mm 1 mps 623 mmHg 58%
    16:00 +21°C° 1.1 mm 1 mps 622 mmHg 63%
    17:00 +20°C° 1.5 mm 1 mps 622 mmHg 71%
    18:00 +18°C° 1.5 mm 1 mps 621 mmHg 79%
    19:00 +16°C° 1.5 mm 1 mps 621 mmHg 88%
    20:00 +15°C° 0.3 mm 1 mps 621 mmHg 88%
    21:00 +14°C° 0.3 mm 2 mps 621 mmHg 89%
    22:00 +13°C° 0.3 mm 2 mps 621 mmHg 90%
    23:00 +13°C° 0 mm 2 mps 621 mmHg 90%

    31 July, Monday

    Time Temperature Precipitation Wind Pressure Humidity
    00:00 +12°C° 0 mm 2 mps 621 mmHg 91%
    01:00 +12°C° 0 mm 2 mps 621 mmHg 91%
    02:00 +11°C° 0 mm 1 mps 620 mmHg 92%
    03:00 +11°C° 0 mm 1 mps 620 mmHg 92%
    04:00 +10°C° 0 mm 1 mps 620 mmHg 92%
    05:00 +12°C° 0 mm 1 mps 621 mmHg 88%
    06:00 +14°C° 0 mm 1 mps 621 mmHg 83%
    07:00 +15°C° 0 mm 1 mps 622 mmHg 79%
    08:00 +19°C° 0 mm 1 mps 623 mmHg 69%
    09:00 +21°C° 0 mm 1 mps 624 mmHg 58%
    10:00 +23°C° 0 mm 1 mps 625 mmHg 48%
    11:00 +24°C° 0 mm 1 mps 625 mmHg 45%
    12:00 +25°C° 0 mm 1 mps 625 mmHg 43%
    13:00 +26°C° 0 mm 2 mps 625 mmHg 41%
    14:00 +25°C° 0.5 mm 2 mps 625 mmHg 45%
    15:00 +24°C° 0.5 mm 2 mps 624 mmHg 50%
    16:00 +24°C° 0.5 mm 2 mps 624 mmHg 54%
    17:00 +22°C° 1.6 mm 1 mps 624 mmHg 65%
    18:00 +20°C° 1.6 mm 1 mps 623 mmHg 75%
    19:00 +19°C° 1.6 mm 1 mps 623 mmHg 85%
    20:00 +18°C° 0.4 mm 1 mps 623 mmHg 86%
    21:00 +15°C° 0.4 mm 1 mps 623 mmHg 87%
    22:00 +14°C° 0.4 mm 1 mps 622 mmHg 88%
    23:00 +14°C° 0 mm 2 mps 622 mmHg 88%

    1 August, Tuesday

    Time Temperature Precipitation Wind Pressure Humidity
    00:00 +13°C° 0 mm 2 mps 622 mmHg 88%
    01:00 +13°C° 0 mm 2 mps 622 mmHg 87%
    02:00 +13°C° 0 mm 2 mps 622 mmHg 86%
    03:00 +13°C° 0 mm 2 mps 622 mmHg 85%
    04:00 +13°C° 0 mm 2 mps 622 mmHg 84%
    05:00 +14°C° 0 mm 2 mps 622 mmHg 80%
    06:00 +15°C° 0 mm 2 mps 623 mmHg 75%
    07:00 +17°C° 0 mm 2 mps 623 mmHg 71%
    08:00 +19°C° 0 mm 2 mps 624 mmHg 61%
    09:00 +23°C° 0 mm 1 mps 625 mmHg 50%
    10:00 +25°C° 0 mm 1 mps 626 mmHg 40%
    11:00 +26°C° 0 mm 1 mps 626 mmHg 38%
    12:00 +27°C° 0 mm 2 mps 626 mmHg 36%
    13:00 +27°C° 0 mm 2 mps 626 mmHg 34%
    14:00 +27°C° 0 mm 2 mps 626 mmHg 36%
    15:00 +27°C° 0 mm 2 mps 625 mmHg 39%
    16:00 +26°C° 0 mm 2 mps 625 mmHg 41%
    17:00 +24°C° 0.5 mm 2 mps 625 mmHg 52%
    18:00 +22°C° 0.5 mm 1 mps 624 mmHg 62%
    19:00 +21°C° 0.5 mm 1 mps 623 mmHg 73%
    20:00 +19°C° 1.4 mm 1 mps 623 mmHg 77%
    21:00 +16°C° 1.4 mm 1 mps 623 mmHg 82%
    22:00 +15°C° 1.4 mm 1 mps 623 mmHg 86%
    23:00 +14°C° 1.2 mm 1 mps 623 mmHg 88%

    2 August, Wednesday

    Time Temperature Precipitation Wind Pressure Humidity
    00:00 +14°C° 1.2 mm 1 mps 623 mmHg 90%
    01:00 +13°C° 1.2 mm 1 mps 623 mmHg 92%
    02:00 +13°C° 1.3 mm 1 mps 623 mmHg 92%
    03:00 +14°C° 1.3 mm 1 mps 623 mmHg 92%
    04:00 +14°C° 1.3 mm 2 mps 624 mmHg 92%
    05:00 +15°C° 0.1 mm 2 mps 624 mmHg 90%
    06:00 +15°C° 0.1 mm 1 mps 625 mmHg 87%
    07:00 +16°C° 0.1 mm 1 mps 625 mmHg 85%
    08:00 +19°C° 0 mm 1 mps 626 mmHg 76%
    09:00 +21°C° 0 mm 1 mps 627 mmHg 67%
    10:00 +22°C° 0 mm 1 mps 627 mmHg 58%
    11:00 +23°C° 0.1 mm 2 mps 627 mmHg 57%
    12:00 +23°C° 0.1 mm 2 mps 627 mmHg 55%
    13:00 +24°C° 0.1 mm 2 mps 627 mmHg 54%
    14:00 +23°C° 0.3 mm 2 mps 627 mmHg 58%
    15:00 +23°C° 0.3 mm 2 mps 627 mmHg 62%
    16:00 +21°C° 0.3 mm 2 mps 626 mmHg 66%
    17:00 +21°C° 0.3 mm 1 mps 626 mmHg 72%
    18:00 +20°C° 0.3 mm 1 mps 626 mmHg 78%
    19:00 +19°C° 0.3 mm 1 mps 625 mmHg 85%
    20:00 +18°C° 0.1 mm 1 mps 625 mmHg 87%
    21:00 +15°C° 0.1 mm 1 mps 625 mmHg 90%
    22:00 +14°C° 0.1 mm 1 mps 625 mmHg 92%
    23:00 +14°C° 0 mm 1 mps 624 mmHg 91%
    Show more